STARLINK-11735

Satellite information

Favourite Embed

Satellite Type and Status

PAYLOADIN ORBIT

Key statistics

Satellite STARLINK-11735 at a glance.

Uptime

203

Days in orbit

Revolutions

≈ 15.7

Per day

Orbit

LEO

Low Earth Orbit

Inclination

43.0

Latest

Satellite identification and parameters

Extended collection of information and parameters for STARLINK-11735.

Object identification

Identified? True

Debris? False

Object name: STARLINK-11735

International designator: 2025-111H

Object number (NORAD): 64130

Object ID (CCSDS): 64130

Country: UNITED STATES OF AMERICA (US)

Current information (Y/N): Y

RCS size: LARGE

Orbital parameters

Period: 91.664 minutes

Inclination: 43.0012 deg

SMA: 6734.292 km

Apoapsis: 358.24 km

Periapsis: 354.074 km

RAAN: 143.354 deg

Eccentricy: 0.0003093

Argument of periapsis: 289.8261 deg

Mean anomaly: 70.2273 deg

Mean motion: 15.70958854 rev/day

Mean motion (dot): 0.00310371 rev/day2

B* drag term: 0.0023214 1/REarth

Two-line elements (TLE)

Creation date: Dec. 12, 2025, 7:26 a.m.

Reference frame: TEME

Reference center: EARTH

Epoch: Dec. 11, 2025, 8:21 p.m. UTC

TLE line 0: 0 STARLINK-11735

TLE line 1: 1 64130U 25111H 25345.84816132 .00310371 00000-0 23214-2 0 9995

TLE line 2: 2 64130 43.0012 143.3540 0003093 289.8261 70.2273 15.70958854 32678

Live tracking on map

Real-time ground track for satellite STARLINK-11735.

In-orbit conjunctions

There are no conjunctions computed for STARLINK-11735, at the moment. Check back to stay up to date, as we update our databases every day.

Go to all conjunctions

Associated space launch

A batch of 23 satellites for the Starlink mega-constellation - SpaceX's project for space-based Internet communication system.

STARLINK-11735 was lifted into orbit during the mission ‘Falcon 9 Block 5 | Starlink Group 12-22’, on board a Falcon 9 space rocket.

The launch took place on May 24, 2025, 5:19 p.m. from Space Launch Complex 40.

For more information about the launch, click the button.

Launch to space Falcon 9 Block 5 | Starlink Group 12-22
Falcon 9 Block 5 | Starlink Group 12-22

Agency: SpaceX

Status: Launch Successful

Launch date: May 24, 2025, 5:19 p.m. UTC

Rocket: Falcon 9

Launch pad: Space Launch Complex 40

Location: Cape Canaveral SFS, FL, USA

...

Latest news about this satellite

News about space launch
Launch Roundup: SpaceX to start new Starlink shell; China, Russia to launch unknown payloads

This week, SpaceX will begin building a new shell for its Starlink constellation, launching from… The post Launch Roundup: SpaceX to start new Starlink shell; China, Russia to launch unknown payloads appeared first on NASASpaceFlight.com.


Newsletter sign-up

Weekly statistics, charts and insights to help you stay on top of the space industry.